Location: Lake Sonoma
(38.7200°N, 123.0564°W)
Time: 06:32:43
(UTC-07:00)

Daily predictions for brighter satellites

Satellite Brightness Start Highest point End
(mag) Time Altitude Azimuth Time Altitude Azimuth Time Altitude Azimuth
NOAA 12 4.5 19:17:55 10° SE 19:22:50 42° ENE 19:27:47 10° N
Cosmos 2369 Rocket 3.9 19:20:03 10° NNE 19:23:12 15° NE 19:26:21 10° E
Cosmos-2242 3.9 19:19:58 10° SSE 19:23:40 28° E 19:27:25 10° NNE
Meteor 1-22 Rocket 4.1 19:21:19 10° S 19:26:39 88° ESE 19:31:58 10° N
Cosmos 1603 4.1 19:24:39 10° S 19:30:02 44° ESE 19:35:29 10° NE
OAO 3 Rocket 3.6 19:25:48 10° WSW 19:30:25 55° S 19:35:07 10° ESE
ATLAS CENTAUR R/B 3.4 19:26:34 10° SW 19:31:00 84° SE 19:44:59 10° NE
Cosmos 1470 4.5 19:29:11 10° ESE 19:31:06 13° E 19:33:00 10° ENE
BREEZE-M DEB (TANK) 3.0 19:30:42 10° WNW 19:32:47 38° SSW 19:36:53 10° SE
Meteor 1-24 Rocket 3.8 19:27:49 10° N 19:33:26 82° W 19:38:49 10° S
NOSS 3-2 (A) 4.0 19:30:02 10° SW 19:36:01 65° NW 19:42:35 10° NNE
Cosmos 1452 Rocket 3.6 19:31:21 10° N 19:36:32 56° ENE 19:41:40 10° SSE
Cosmos 1674 4.3 19:36:42 10° NNE 19:39:17 17° ENE 19:41:20 12° ESE
SJ-6B 2.8 19:39:35 10° SSE 19:43:32 70° ENE 19:47:36 10° N
ASTRO E2 4.3 19:40:32 10° WSW 19:43:54 25° S 19:47:17 10° SE
ASTEX 1 4.5 19:40:51 10° NE 19:44:41 22° E 19:48:28 10° SE
In-Cosmos 22 4.3 19:39:14 10° N 19:44:59 64° E 19:50:39 10° SSE
Cosmos 2034 Rocket 4.0 19:41:22 10° S 19:47:31 65° E 19:53:48 10° NNE
Cosmos 1464 Rocket 4.0 19:41:41 10° S 19:47:55 88° E 19:54:08 10° N
Cosmos 1408 Rocket 3.4 19:43:58 10° N 19:48:18 72° E 19:52:35 10° SSE
Cosmos 468 4.4 19:47:47 10° S 19:52:59 69° ESE 19:58:12 10° NNE
Cosmos 1484 Rocket 4.2 19:50:15 10° S 19:53:53 41° W 19:57:37 10° NNW
Cosmos 1420 Rocket 4.3 19:51:26 10° N 19:56:34 47° ENE 20:01:40 10° SE
ISS -3.4 19:54:41 10° SW 19:57:54 67° SE 20:00:05 19° ENE
Cosmos 1758 3.3 19:54:01 10° S 19:58:05 84° E 20:02:13 10° N
BREEZE-M TANK 4.2 19:49:47 10° WNW 19:59:08 45° SW 20:02:24 10° SSE
ATLAS 5 CENTAUR R/B 2.7 19:55:29 10° SW 20:00:07 51° NW 20:05:10 10° NNE
Cosmos 724 4.5 19:56:00 10° SSW 20:01:55 81° WNW 20:08:01 10° NNE
ALOS 2.9 19:59:05 13° SE 20:02:47 34° ENE 20:07:00 10° N
Helios 1A 3.1 19:59:07 10° SSE 20:03:12 54° ENE 20:07:19 10° N
FengYun 1-2 T 4.3 19:58:43 10° SSE 20:04:02 52° ENE 20:09:21 10° N
CENTAUR R/B 2.7 19:58:38 10° S 20:04:12 44° ESE 20:10:25 10° NE
Cosmos 1544 3.0 20:01:22 10° S 20:05:03 65° E 20:08:47 10° NNE
Spot 2 Rocket 3.4 20:05:26 10° SSE 20:10:27 78° ENE 20:15:30 10° N
Cosmos 1048 Rocket 3.9 20:08:54 10° S 20:14:09 70° ESE 20:19:23 10° NNE
Resurs 1-3 3.5 20:09:57 10° SSE 20:14:17 64° ENE 20:18:38 10° N
HJ-1C 3.4 20:12:29 10° S 20:15:49 83° WSW 20:19:12 10° NNW
SL-8 R/B 3.8 20:12:10 10° WSW 20:16:57 74° NNW 20:20:21 19° NE
Cosmos 1269 Rocket 4.0 20:12:11 10° SSW 20:17:28 88° ESE 20:22:46 10° NNE
Cosmos 1743 Rocket 3.4 20:13:59 10° N 20:18:25 72° E 20:22:47 10° SSE
Resurs 01 Rocket 1.6 20:15:48 10° SSE 20:20:15 84° WSW 20:24:44 10° NNW
METEOR-M 4.3 20:15:39 10° S 20:20:59 76° WSW 20:26:22 10° NNW
CZ-2D R/B 3.5 20:26:22 43° E 20:26:45 45° ENE 20:30:29 10° N
Cosmos 1174 4.0 20:21:53 10° SSW 20:26:45 59° ESE 20:28:42 29° NE
Meteor 1-21 Rocket 4.4 20:21:46 10° NNW 20:27:18 74° W 20:32:49 10° S
Abrixas 3.8 20:27:04 10° W 20:29:53 36° NNW 20:30:38 30° N
Cosmos 158 Rocket 3.8 20:27:12 10° S 20:31:58 58° ESE 20:36:46 10° NNE
Helios 1B rocket 3.3 20:33:01 10° N 20:37:01 51° WNW 20:41:00 10° SSW
FENGYUN 3A 3.5 20:32:55 15° SSE 20:37:24 77° ENE 20:42:48 10° N
CZ-4B DEB 2.8 20:38:16 70° N 20:38:16 70° N 20:41:13 10° N
H-2A R/B 2.7 20:38:39 63° E 20:38:46 64° ENE 20:42:36 10° N
GP-B 3.2 20:41:36 10° N 20:45:35 56° ENE 20:45:35 56° ENE
GPS 2-04 Rocket1 3.2 20:43:04 10° WSW 20:45:48 42° SSW 20:45:48 42° SSW
USA 215 3.3 20:41:14 10° NE 20:47:46 77° NW 20:54:17 10° SW
SeaSat 1 4.3 20:54:19 17° S 20:54:19 17° S 20:55:30 10° S
Cosmos 2279 Rocket 4.2 20:54:12 45° ENE 20:54:12 45° ENE 20:59:37 10° NNE
ERS-1 Rocket 4.2 20:55:38 28° NE 20:55:38 28° NE 20:58:35 10° N
Cosmos 1092 Rocket 4.2 20:57:08 10° NNW 21:03:17 68° W 21:09:22 10° S
Cosmos 1943 Rocket 3.0 20:58:24 10° N 21:02:41 36° NE 21:02:41 36° NE
Gbstr 26 Del rocket 3.6 20:59:14 10° WSW 21:03:42 65° NW 21:05:03 46° NNE
Cosmos 1733 4.2 21:00:25 10° SSW 21:04:09 46° W 21:07:54 10° N
Cosmos 2151 3.6 21:02:19 10° N 21:05:22 47° N 21:05:22 47° N
Cosmos 1470 4.3 21:03:16 10° SW 21:06:50 35° WNW 21:10:26 10° N
Cosmos 1110 Rocket 4.2 21:02:03 10° NNW 21:06:42 58° NE 21:06:42 58° NE
Cosmos 1943 3.5 21:01:58 10° SSW 21:07:33 65° WNW 21:13:09 10° NNE
Cosmos 2369 Rocket 2.1 21:02:16 10° NNW 21:07:57 84° WSW 21:09:00 61° S
Cosmos 1655 Rocket 3.8 21:03:56 10° N 21:10:09 68° E 21:10:29 67° ESE
OAO 3 Rocket 4.3 21:09:15 10° W 21:12:59 35° SW 21:12:59 35° SW
Cosmos 2026 Rocket 3.8 21:09:13 10° N 21:15:20 83° E 21:16:08 69° SSE
Cosmos 1634 Rocket 4.3 21:11:25 10° SSW 21:17:35 65° W 21:23:46 10° N
Cosmos 2263 4.1 21:11:58 10° NNW 21:17:40 83° NE 21:17:40 83° NE
ISS 0.1 21:32:18 10° WNW 21:32:48 12° WNW 21:32:48 12° WNW
CENTAUR R/B 3.9 21:49:22 10° WSW 21:54:57 35° NW 22:01:11 10° NNE
BREEZE-M DEB (TANK) 4.4 21:48:05 10° SW 21:59:53 57° SSW 21:59:53 57° SSW
